Weather History for Greybull, WY

Change the Weather History Date:

Tuesday, February 12, 2013

  Actual Average Record
Temperature  
Mean Temperature 13 °F 22 °F  
Max Temperature 28 °F 34 °F 48 °F (2006)
Min Temperature -3 °F 10 °F -9 °F (2004)
Degree Days  
Heating Degree Days 52 43  
Month to date heating degree days 589 537  
Since 1 July heating degree days 5177 5351  
Cooling Degree Days 0 0  
Month to date cooling degree days 0 0  
Year to date cooling degree days 0 0  
Moisture  
Dew Point 5 °F    
Average Humidity 73    
Maximum Humidity 95    
Minimum Humidity 50    
Precipitation  
Precipitation 0.00 in 0.00 in 0.01 in (2007)
Month to date precipitation T 0.07  
Year to date precipitation 0.28 0.30  
Sea Level Pressure  
Sea Level Pressure 30.26 in    
Wind  
Wind Speed 3 mph (SE)    
Max Wind Speed 9 mph    
Max Gust Speed 12 mph    
Visibility 10 miles    
Events      
T = Trace of Precipitation, MM = Missing Value Source: NWS Daily Summary

Daily Weather History Graph

Daily Weather History Graph

Search for Another Location

Airport:

Trip Planner

Search our weather history database for the weather conditions in past years. The results will help you decide how hot, cold, wet, or windy it might be!

Date:

Astronomy

Feb. 12, 2013 Rise Set
Actual Time 7:16 AM MST 5:37 PM MST
Civil Twilight 6:46 AM MST 6:07 PM MST
Nautical Twilight 6:11 AM MST 6:41 PM MST
Astronomical Twilight 5:38 AM MST 7:15 PM MST
Moon 8:06 AM MST (2/12) 8:51 PM MST (2/12)
Length of Visible Light 11h 21m
Length of Day
10h 21m
Waxing Crescent, 8% of the Moon is Illuminated
Feb 12
Waxing Crescent
Feb 17
First Quarter
Feb 25
Full
Mar 4
Last Quarter
Mar 11
New

Hourly Weather History & Observations

Time (MST) Temp. Windchill Dew Point Humidity Pressure Visibility Wind Dir Wind Speed Gust Speed Precip Events Conditions
12:53 AM 3.9 °F - -0.0 °F 84% 30.25 in 10.0 mi Calm Calm - N/A   Clear
1:53 AM 1.9 °F -7.6 °F -0.9 °F 88% 30.25 in 10.0 mi SE 4.6 mph - N/A   Clear
2:53 AM -0.9 °F - -5.1 °F 83% 30.26 in 10.0 mi Calm Calm - N/A   Clear
3:53 AM 1.0 °F - -2.9 °F 83% 30.25 in 10.0 mi Calm Calm - N/A   Clear
4:53 AM -0.9 °F - -5.1 °F 83% 30.27 in 10.0 mi Calm Calm - N/A   Clear
5:53 AM -0.9 °F -12.7 °F -5.1 °F 83% 30.29 in 10.0 mi WSW 5.8 mph - N/A   Clear
6:53 AM -2.0 °F - -6.0 °F 83% 30.29 in 10.0 mi Calm Calm - N/A   Clear
7:53 AM -2.0 °F -10.1 °F -5.1 °F 87% 30.32 in 10.0 mi SE 3.5 mph - N/A   Clear
8:53 AM 3.0 °F -4.4 °F -0.0 °F 87% 30.32 in 10.0 mi ESE 3.5 mph - N/A   Clear
9:53 AM 9.0 °F - 3.0 °F 77% 30.33 in 10.0 mi Calm Calm - N/A   Clear
10:53 AM 12.9 °F - 5.0 °F 71% 30.34 in 10.0 mi Calm Calm - N/A   Partly Cloudy
11:53 AM 15.1 °F - 5.0 °F 64% 30.33 in 10.0 mi Calm Calm - N/A   Mostly Cloudy
12:53 PM 19.9 °F 14.9 °F 8.1 °F 60% 30.28 in 10.0 mi East 3.5 mph - N/A   Overcast
1:53 PM 23.0 °F 14.7 °F 10.0 °F 58% 30.26 in 10.0 mi East 6.9 mph - N/A   Clear
2:53 PM 26.1 °F 20.5 °F 10.9 °F 53% 30.24 in 10.0 mi South 4.6 mph - N/A   Partly Cloudy
3:53 PM 28.0 °F 20.8 °F 12.0 °F 51% 30.22 in 10.0 mi South 6.9 mph - N/A   Overcast
4:53 PM 27.0 °F 23.0 °F 12.9 °F 56% 30.21 in 10.0 mi SSE 3.5 mph - N/A   Clear
5:53 PM 24.1 °F 18.2 °F 14.0 °F 65% 30.22 in 10.0 mi ESE 4.6 mph - N/A   Clear
6:53 PM 21.9 °F 15.7 °F 12.0 °F 66% 30.25 in 10.0 mi SE 4.6 mph - N/A   Mostly Cloudy
7:53 PM 23.0 °F 15.8 °F 12.0 °F 63% 30.25 in 10.0 mi East 5.8 mph - N/A   Overcast
8:53 PM 23.0 °F - 12.9 °F 65% 30.22 in 10.0 mi Calm Calm - N/A   Overcast
9:53 PM 21.0 °F 14.6 °F 12.0 °F 68% 30.20 in 10.0 mi SSE 4.6 mph - N/A   Clear
10:53 PM 19.9 °F 13.4 °F 12.0 °F 71% 30.18 in 10.0 mi East 4.6 mph - N/A   Clear
11:53 PM 18.0 °F - 9.0 °F 68% 30.17 in 10.0 mi Calm Calm - N/A   Clear